Home > Weather > Bahawalpur > Past weeks

Flag for Pakistan Past Weather in Bahawalpur, Pakistan — Yesterday and Last 2 Weeks

Now
90 °F

Clear.


Feels Like: 93 °F
Forecast: 85 / 110 °F
Wind: No wind

Location: Multan Airport

Current Time: May 26, 2016 at 7:54:02 AM

Latest Report: May 26, 2016 at 6:55 AM


Visibility: 2 mi

Pressure: 29.45 "Hg

Humidity: 49%

Dew Point: 68 °F

Location of BahawalpurLocation

Past Weather in Bahawalpur — Graph

°F

Bahawalpur Temperature Yesterday

Maximum temperature yesterday: 102 °F (at 2:55 PM)
Minimum temperature yesterday: 81 °F (at 5:55 AM)
Average temperature yesterday: 92 °F

High & Low Weather Summary for the Past Weeks

 TemperatureHumidityPressure
High118 °F (May 21, 4:55 PM)70% (May 25, 5:55 AM)29.80 "Hg (May 25, 5:55 AM)
Low77 °F (May 24, 5:55 AM)12% (May 13, 4:56 PM)29.33 "Hg (May 20, 5:57 PM)
Average97 °F35%29.50 "Hg
* Reported May 11 5:54 AM — May 26 5:55 AM, Bahawalpur, Weather by CustomWeather, © 2016

Note: Actual official high and low records may vary slightly from our data, if they occured in-between our weather recording intervals... More about our weather records

Advertising

Bahawalpur Weather History for the Previous 24 Hours

Scroll right to see more
 ConditionsComfort  
Time TempWeatherWind HumidityBarometerVisibility
5:55 AM
Thu, May 26
88 °FHaze.No wind46%29.42 "Hg2 mi
5:00 AM88 °FHaze.No wind49%29.39 "Hg2 mi
3:55 AM90 °FHaze.7 mph46%29.39 "Hg2 mi
1:55 AM91 °FHaze.7 mph41%29.39 "Hg2 mi
11:55 PM
Wed, May 25
93 °FHaze.No wind41%29.42 "Hg2 mi
9:55 PM95 °FHaze.No wind41%29.42 "Hg2 mi
8:55 PM97 °FHaze.No wind39%29.42 "Hg2 mi
7:55 PM97 °FHaze.No wind42%29.39 "Hg2 mi
6:55 PM100 °FHaze.No wind31%29.39 "Hg2 mi
4:00 PM102 °FClear.7 mph29%29.42 "Hg4 mi
2:55 PM102 °FClear.No wind29%29.45 "Hg4 mi
1:55 PM100 °FClear.7 mph35%29.45 "Hg4 mi
12:55 PM99 °FClear.5 mph35%29.47 "Hg4 mi
11:55 AM95 °FClear.9 mph41%29.50 "Hg4 mi
10:53 AM93 °FHaze.12 mph47%29.53 "Hg3 mi
9:55 AM91 °FClear.7 mph52%29.53 "Hg3 mi
8:55 AM88 °FClear.7 mph52%29.53 "Hg2 mi
8:00 AM84 °FClear.7 mph66%29.53 "Hg2 mi
Weather by CustomWeather, © 2016

See weather overviewHow to use our weather pages